Location: G�ppingen
(48.7089°N, 9.6563°E)
Time: 12:34:01
(UTC+02:00)

ISS - Visible Passes

Search period start: 13 May 2021 00:00
Search period end: 23 May 2021 00:00
Orbit: 417 x 422 km, 51.6° (Epoch: 13 May)

Date Brightness Start Highest point End Pass type
(mag) Time Alt. Az. Time Alt. Az. Time Alt. Az.
13 May -0.9 00:32:07 10° ENE 00:32:07 10° ENE 00:32:09 10° ENE visible
13 May -2.9 02:05:02 41° NW 02:05:44 50° N 02:09:03 10° ENE visible
13 May -3.5 03:39:27 10° WNW 03:42:49 70° NNE 03:46:12 10° E visible
14 May -2.9 01:18:38 50° NNE 01:18:38 50° NNE 01:21:34 10° ENE visible
14 May -3.2 02:51:59 10° WNW 02:55:21 58° NNE 02:58:41 10° E visible
14 May -3.5 04:28:53 10° WNW 04:32:09 46° SSW 04:35:24 10° SE visible
14 May -3.3 22:50:52 10° SW 22:54:00 38° SSE 22:55:35 23° E visible
15 May -3.4 00:27:23 10° W 00:30:44 63° NNW 00:34:06 10° ENE visible
15 May -2.9 02:04:31 10° WNW 02:07:50 51° N 02:11:09 10° E visible
15 May -3.9 03:41:24 10° WNW 03:44:46 67° SSW 03:48:07 10° ESE visible
15 May -2.7 22:03:50 10° SSW 22:06:42 26° SE 22:09:33 10° E visible
15 May -3.7 23:39:53 10° WSW 23:43:16 79° NNW 23:46:39 10° ENE visible
16 May -2.8 01:17:02 10° WNW 01:20:19 49° N 01:23:37 10° ENE visible
16 May -3.9 02:53:56 10° WNW 02:57:20 90° NE 03:00:43 10° ESE visible
16 May -2.5 04:31:11 10° W 04:33:49 21° SW 04:36:27 10° SSE visible
16 May -3.9 22:52:27 10° WSW 22:55:49 79° SSE 22:59:12 10° ENE visible
17 May -2.9 00:29:30 10° W 00:32:48 49° N 00:36:06 10° ENE visible
17 May -3.5 02:06:29 10° WNW 02:09:52 70° NNE 02:13:15 10° ESE visible
17 May -3.0 03:43:29 10° W 03:46:32 31° SW 03:49:34 10° SSE visible
17 May -3.7 22:05:07 10° SW 22:08:24 56° SSE 22:11:44 10° ENE visible
17 May -3.0 23:41:58 10° W 23:45:16 54° N 23:48:37 10° ENE visible
18 May -3.2 01:19:02 10° WNW 01:22:23 58° NNE 01:22:55 50° NE visible
18 May -3.3 22:54:25 10° W 22:57:46 63° NNW 23:01:08 10° ENE visible
19 May -2.9 00:31:33 10° WNW 00:34:52 51° N 00:36:31 25° ENE visible
19 May -1.6 02:08:25 10° WNW 02:09:26 18° WNW 02:09:26 18° WNW visible
19 May -3.6 22:06:55 10° WSW 22:10:17 78° NNW 22:13:40 10° ENE visible
19 May -2.8 23:44:03 10° WNW 23:47:21 49° N 23:50:20 12° ENE visible
20 May -2.8 01:20:58 10° WNW 01:23:16 40° WNW 01:23:16 40° WNW visible
20 May -2.8 22:56:31 10° W 22:59:49 49° N 23:03:07 10° ENE visible
21 May -3.6 00:33:31 10° WNW 00:36:53 71° NNE 00:37:12 64° ENE visible
21 May -3.0 22:08:58 10° W 22:12:18 54° N 22:15:37 10° ENE visible
21 May -3.2 23:46:02 10° WNW 23:49:23 58° NNE 23:51:10 25° E visible
22 May -1.7 01:22:56 10° WNW 01:24:06 19° W 01:24:06 19° W visible
22 May -3.0 22:58:34 10° WNW 23:01:52 51° N 23:05:10 10° E visible
